Probability
0 0 0 0 0 0 0 0 0 0 0 0 0 0 0 0 0 0 0 0 0 0 0 0 0 0 0 0 0 0 0 0 0 0 0 0 0 0 0 0 0 0 0 0
0 0 0 0 0 0 0 0 0 0 0 0 0 0 0 0 0 0 0 0 0 0 0 0 0 0 0 0 0 0 0 0 0 0 0 0 0 0 0 0 0 0 0 0
0 0 0 0 0 0 0 0 0 0 0 0 0 0 0 0 0 0 0 0 0 0 0 0 0 0 0 0 0 0 0 0 0 0 0 0 0 0 0 0 0 0 0 0
0 0 0 0 0 0 0 0 0 0 0 0 0 0 0 0 0 0 0 0 0 0 0 0 0 0 0 0 0 0 0 0 0 0 0 0 0 0 0 0 0 0 0 0
0 0 0 0 0 0 0 0 0 0 0 0 0 0 0 0 0 0 0 0 0 0 0 0 0 0 0 0 0 0 0 0 0 0 0 0 0 0 0 0 0 0 0 0
0 0 0 0 0 0 0 0 0 0 0 0 0 0 0 0 0 0 0 0 0 0 0 0 0 0 0 0 0 0 0 0 0 0 0 0 0 0 0 0 0 0 0 0
0 0 0 0 0 0 0 0 0 0 0 0 0 0 0 0 0 0 0 0 0 0 0 0 0 0 0 0 0 0 0 0 0 0 0 0 0 0 0 0 0 0 0 0
0 0 0 0 0 0 0 0 0 0 0 0 0 0 0 0 0 0 0 0 0 0 0 0 0 0 0 0 0 0 0 0 0 0 0 0 0 0 0 0 0 0 0 0
0 0 0 0 0 0 0 0 0 0 0 0 0 0 0 0 0 0 0 0 0 0 0 0 0 0 0 0 0 0 0 0 0 0 0 0 0 0 0 0 0 0 0 0
0 0 0 0 0 0 0 0 0 0 0 0 0 0 0 0 0 0 0 0 0 0 0 0 0 0 0 0 0 0 0 0 0 0 0 0 0 0 0 0 0 0 0 0
0 0 0 0 0 0 0 0 0 0 0 0 0 0 0 0 0 0 0 0 0 0 0 0 0 0 0 0 0 0 0 0 0 0 0 0 0 0 0 0 0 0 0 0
0 0 0 0 0 0 0 0 0 0 0 0 0 0 0 0 0 0 0 0 0 0 0 0 0 0 0 0 0 0 0 0 0 0 0 0 0 0 0 0 0 0 0 0
0 0 0 0 0 0 0 0 0 0 0 0 0 0 0 0 0 0 0 0 0 0 0 0 0 0 0 0 0 0 0 0 0 0 0 0 0 0 0 0 0 0 0 0
0 0 0 0 0 0 0 0 0 0 0 0 0 0 0 0 0 0 0 0 0 0 0 0 0 0 0 0 0 0 0 0 0 0 0 0 0 0 0 0 0 0 0 0
0 0 0 0 0 0 0 0 0 0 0 0 0 0 0 0 0 0 0 0 0 0 0 0 0 0 0 0 0 0 0 0 0 0 0 0 0 0 0 0 0 0 0 0
0 0 0 0 0 0 0 0 0 0 0 0 0 0 0 0 0 0 0 0 0 0 0 0 0 0 0 0 0 0 0 0 0 0 0 0 0 0 0 0 0 0 0 0
0 0 0 0 0 0 0 0 0 0 0 0 0 0 0 0 0 0 0 0 0 0 0 0 0 0 0 0 0 0 0 0 0 0 0 0 0 0 0 0 0 0 0 0
0 0 0 0 0 0 0 0 0 0 0 0 0 0 0 0 0 0 0 0 0 0 0 0 0 0 0 0 0 0 0 0 0 0 0 0 0 0 0 0 0 0 0 0
0 0 0 0 0 0 0 0 0 0 0 0 0 0 0 0 0 0 0 0 0 0 0 0 0 0 0 0 0 0 0 0 0 0 0 0 0 0 0 0 0 0 0 0
0 0 0 0 0 0 0 0 0 0 0 0 0 0 0 0 0 0 0 0 0 0 0 0 0 0 0 0 0 0 0 0 0 0 0 0 0 0 0 0 0 0 0 0
0 0 0 0 0 0 0 0 0 0 0 0 0 0 0 0 0 0 0 0 0 0 0 0 0 0 0 0 0 0 0 0 0 0 0 0 0 0 0 0 0 0 0 0
0 0 0 0 0 0 0 0 0 0 0 0 0 0 0 0 0 0 0 0 0 0 0 0 0 0 0 0 0 0 0 0 0 0 0 0 0 0 0 0 0 0 0 0
0 0 0 0 0 0 0 0 0 0 0 0 0 0 0 0 0 0 0 0 0 0 0 0 0 0 0 0 0 0 0 0 0 0 0 0 0 0 0 0 0 0 0 0
0 0 0 0 0 0 0 0 0 0 0 0 0 0 0 0 0 0 0 0 0 0 0 0 0 0 0 0 0 0 0 0 0 0 0 0 0 0 0 0 0 0 0 0
0 0 0 0 0 0 0 0 0 0 0 0 0 0 0 0 0 0 0 0 0 0 0 0 0 0 0 0 0 0 0 0 0 0 0 0 0 0 0 0 0 0 0 0
0 0 0 0 0 0 0 0 0 0 0 0 0 0 0 0 0 0 0 0 0 0 0 0 0 0 0 0 0 0 0 0 0 0 0 0 0 0 0 0 0 0 0 0
0 0 0 0 0 0 0 0 0 0 0 0 0 0 0 0 0 0 0 0 0 0 0 0 0 0 0 0 0 0 0 0 0 0 0 0 0 0 0 0 0 0 0 0
Height
5586 5587 5587 5588 5589 5590 5590 5590 5591 5594 5595 5597 5597 5597 5597 5598 5598 5599 5599 5599 5599 5599 5599 5600 5600 5600 5599 5599 5599 5598 5598 5597 5597 5596 5596 5595 5595 5594 5594 5594 5594 5595 5596 5597
5575 5575 5575 5576 5578 5578 5579 5579 5580 5581 5584 5586 5586 5586 5587 5587 5588 5589 5589 5590 5590 5590 5590 5590 5590 5590 5590 5590 5590 5589 5589 5588 5588 5587 5587 5586 5586 5585 5585 5585 5585 5586 5587 5588
5564 5564 5563 5564 5567 5567 5568 5569 5569 5570 5573 5574 5575 5576 5576 5577 5578 5578 5579 5580 5580 5581 5581 5581 5581 5581 5581 5581 5580 5580 5580 5580 5579 5579 5578 5577 5577 5577 5577 5577 5577 5577 5578 5579
5552 5553 5552 5556 5556 5556 5557 5558 5558 5559 5561 5563 5564 5565 5566 5566 5567 5568 5569 5570 5571 5571 5571 5571 5571 5571 5572 5571 5571 5571 5571 5571 5570 5570 5569 5569 5569 5568 5569 5569 5569 5569 5570 5571
5542 5541 5541 5545 5545 5545 5545 5546 5547 5548 5550 5551 5552 5554 5555 5556 5557 5558 5559 5560 5561 5561 5562 5562 5562 5562 5562 5563 5562 5562 5562 5562 5561 5561 5560 5560 5560 5560 5560 5561 5561 5561 5561 5562
5532 5531 5531 5535 5534 5533 5534 5534 5536 5536 5538 5540 5541 5543 5546 5546 5547 5548 5549 5550 5551 5551 5552 5552 5553 5553 5554 5554 5554 5554 5554 5553 5552 5552 5551 5551 5552 5552 5552 5552 5552 5552 5553 5553
5523 5521 5521 5524 5524 5524 5525 5526 5526 5525 5527 5528 5530 5533 5535 5535 5537 5538 5540 5541 5541 5542 5542 5543 5543 5544 5544 5545 5545 5545 5545 5544 5544 5543 5543 5543 5543 5543 5544 5544 5544 5544 5545 5545
5513 5512 5514 5514 5513 5514 5514 5514 5514 5515 5516 5518 5520 5521 5523 5525 5526 5528 5529 5531 5531 5532 5533 5534 5534 5535 5535 5536 5536 5536 5536 5536 5536 5535 5535 5535 5535 5536 5536 5536 5536 5536 5537 5537
5504 5505 5505 5503 5503 5503 5503 5504 5504 5504 5506 5507 5509 5511 5513 5515 5516 5518 5519 5520 5522 5523 5524 5524 5525 5526 5526 5527 5527 5527 5527 5527 5527 5527 5527 5527 5527 5528 5528 5528 5528 5528 5528 5529
5494 5495 5495 5494 5493 5493 5493 5493 5494 5494 5496 5497 5499 5501 5502 5504 5506 5507 5509 5510 5511 5513 5514 5515 5515 5516 5517 5517 5518 5518 5518 5518 5519 5519 5519 5519 5519 5520 5520 5520 5520 5520 5520 5520
5484 5485 5485 5485 5484 5484 5484 5484 5484 5485 5486 5487 5489 5490 5492 5494 5496 5498 5499 5500 5501 5503 5504 5505 5506 5507 5507 5508 5509 5509 5509 5509 5510 5510 5510 5510 5511 5511 5511 5511 5511 5511 5511 5511
5475 5476 5474 5475 5475 5474 5474 5474 5475 5475 5477 5478 5479 5481 5483 5485 5487 5488 5490 5491 5492 5493 5494 5495 5496 5497 5498 5499 5499 5500 5500 5500 5501 5501 5501 5502 5502 5502 5502 5502 5502 5501 5501 5501
5466 5465 5465 5465 5465 5464 5464 5465 5465 5466 5467 5468 5470 5472 5474 5476 5478 5479 5480 5482 5482 5483 5484 5486 5487 5488 5489 5489 5490 5490 5491 5491 5491 5492 5492 5492 5492 5493 5493 5492 5492 5491 5491 5491
5456 5456 5455 5455 5455 5455 5455 5456 5456 5457 5458 5460 5461 5463 5465 5467 5469 5470 5472 5473 5474 5475 5476 5477 5478 5479 5479 5480 5481 5482 5482 5482 5482 5482 5483 5483 5483 5483 5482 5482 5482 5481 5481 5480
5448 5447 5447 5446 5446 5446 5446 5447 5448 5449 5450 5452 5453 5455 5457 5459 5460 5462 5463 5464 5465 5466 5467 5468 5469 5470 5471 5471 5472 5473 5473 5473 5473 5473 5473 5473 5473 5473 5472 5472 5472 5471 5471 5470
5441 5440 5439 5439 5438 5438 5438 5439 5440 5441 5442 5444 5445 5447 5448 5450 5452 5453 5454 5456 5457 5458 5459 5460 5461 5461 5462 5463 5463 5464 5464 5464 5464 5464 5464 5464 5463 5463 5463 5462 5462 5461 5461 5460
5434 5434 5433 5432 5432 5431 5432 5432 5433 5433 5435 5436 5437 5439 5440 5442 5443 5444 5446 5447 5448 5449 5450 5451 5452 5452 5453 5453 5454 5454 5455 5455 5455 5455 5454 5454 5454 5453 5453 5452 5452 5451 5450 5450
5428 5427 5426 5425 5425 5425 5425 5425 5426 5426 5427 5428 5430 5431 5432 5434 5435 5436 5437 5438 5439 5440 5441 5442 5442 5443 5444 5444 5444 5445 5445 5445 5445 5445 5445 5444 5444 5444 5443 5442 5442 5441 5440 5439
5422 5421 5420 5419 5419 5418 5418 5418 5419 5419 5420 5421 5422 5423 5424 5425 5426 5427 5428 5429 5430 5431 5432 5432 5433 5433 5434 5434 5434 5434 5435 5435 5435 5435 5435 5434 5434 5433 5433 5432 5431 5430 5429 5428
5416 5415 5414 5413 5412 5412 5412 5412 5412 5412 5413 5413 5414 5415 5416 5417 5418 5419 5419 5420 5420 5421 5422 5422 5423 5423 5424 5424 5424 5424 5424 5425 5425 5425 5425 5424 5424 5423 5422 5422 5421 5420 5418 5418
5410 5409 5408 5407 5406 5406 5405 5405 5405 5405 5406 5406 5407 5408 5408 5409 5410 5410 5411 5411 5412 5412 5412 5413 5413 5413 5414 5414 5414 5414 5414 5415 5415 5414 5414 5414 5414 5413 5412 5411 5410 5409 5408 5407
5404 5403 5402 5401 5401 5400 5399 5398 5398 5398 5398 5399 5399 5400 5401 5401 5402 5402 5402 5403 5403 5403 5403 5403 5403 5404 5404 5404 5404 5404 5404 5404 5404 5404 5404 5404 5403 5402 5401 5401 5400 5398 5397 5396
5399 5398 5397 5396 5395 5394 5393 5392 5391 5391 5391 5392 5392 5392 5393 5393 5393 5393 5394 5393 5393 5393 5393 5393 5393 5393 5393 5393 5394 5394 5394 5394 5394 5394 5393 5393 5392 5392 5391 5390 5389 5388 5386 5385
5393 5392 5391 5390 5389 5388 5386 5385 5385 5384 5384 5384 5384 5384 5385 5385 5385 5385 5384 5384 5384 5384 5384 5383 5383 5383 5383 5383 5383 5383 5384 5384 5384 5383 5383 5382 5381 5381 5380 5379 5378 5377 5375 5374
5387 5386 5385 5384 5383 5381 5380 5379 5379 5378 5377 5377 5377 5377 5376 5376 5376 5376 5375 5375 5374 5374 5374 5373 5373 5373 5373 5373 5373 5373 5373 5373 5373 5372 5372 5371 5370 5370 5369 5368 5367 5366 5365 5364
5381 5380 5379 5378 5377 5375 5374 5373 5372 5371 5371 5370 5370 5369 5368 5368 5367 5367 5366 5366 5365 5365 5364 5364 5363 5363 5362 5362 5362 5362 5362 5362 5362 5361 5361 5360 5359 5359 5358 5357 5356 5355 5355 5354
5376 5375 5374 5372 5371 5369 5368 5367 5366 5365 5364 5363 5362 5361 5360 5360 5359 5358 5357 5357 5356 5355 5355 5354 5353 5353 5352 5352 5352 5351 5351 5351 5351 5350 5350 5349 5348 5348 5347 5346 5346 5345 5345 5345
Wind_Speed
36 36 37 37 36 37 38 38 39 37 36 33 32 33 33 33 32 30 30 31 31 31 31 31 31 31 32 31 31 31 30 30 30 30 30 30 31 32 34 34 33 33 34 34
37 36 37 38 37 37 37 37 38 38 36 33 33 33 33 33 32 31 30 31 31 31 30 31 31 32 32 32 31 31 31 30 30 30 30 30 31 31 31 31 33 33 33 34
36 37 38 38 37 37 37 36 37 37 36 35 34 33 33 33 33 32 31 32 31 31 31 31 31 31 32 32 31 31 31 31 30 30 29 29 29 30 30 30 31 32 32 32
34 34 36 36 36 36 37 37 38 37 35 35 34 33 33 32 32 32 32 32 32 32 32 31 31 31 31 31 30 30 31 30 30 29 29 29 28 29 30 30 30 31 30 30
34 35 36 34 34 34 35 36 37 38 37 35 34 34 33 32 32 32 32 32 32 32 32 32 31 31 30 30 30 29 29 29 29 29 29 29 29 28 28 29 30 29 29 30
33 34 34 33 32 33 35 36 35 36 37 36 35 34 33 33 32 32 31 32 32 32 31 31 30 30 30 30 29 29 29 28 28 28 28 28 29 29 28 28 28 29 29 29
32 33 33 32 32 31 33 33 33 35 35 35 36 35 34 33 33 32 31 31 31 31 30 30 30 30 30 30 29 28 28 28 28 27 27 27 27 28 28 28 29 29 29 29
31 31 31 31 31 31 32 32 32 33 34 34 34 35 35 35 34 33 32 31 31 31 30 30 31 31 31 31 30 29 28 28 28 27 26 27 27 27 27 27 28 29 29 29
31 31 30 30 31 31 31 32 33 33 33 34 34 34 34 34 34 33 33 33 32 31 31 30 30 30 31 31 30 29 29 29 29 28 28 28 28 28 28 28 28 28 28 28
32 30 29 30 30 30 31 31 32 33 32 32 32 33 33 33 33 33 33 32 32 32 31 31 31 31 31 30 30 30 29 29 29 28 28 29 28 28 29 29 29 30 30 31
31 30 29 29 30 30 30 30 30 30 30 30 30 31 30 31 32 32 32 32 32 31 31 31 31 31 31 31 30 29 29 28 28 29 29 30 30 29 29 30 30 30 31 32
31 30 30 29 29 29 30 30 30 29 29 29 29 30 30 29 29 29 29 29 30 31 31 30 30 30 31 31 30 30 30 29 29 29 29 30 30 30 30 31 31 32 32 33
29 28 29 29 29 28 28 28 29 28 28 28 28 28 28 28 28 28 28 28 28 28 29 29 30 30 30 30 30 30 31 31 30 30 30 30 31 31 32 32 32 33 34 34
27 27 28 28 27 28 28 27 28 27 26 26 27 27 27 27 27 27 27 28 28 28 28 28 28 28 29 29 29 30 30 30 29 30 30 31 31 32 32 32 33 33 34 34
24 25 26 26 26 26 27 27 27 26 26 26 26 27 26 26 27 27 27 27 27 27 27 27 28 28 28 29 29 30 30 29 30 30 30 31 32 32 33 33 33 33 34 34
22 23 24 25 24 24 24 24 24 25 25 25 25 26 27 27 27 27 27 27 27 27 28 28 28 28 28 29 29 29 29 30 30 30 30 31 31 32 32 33 33 34 34 35
22 22 23 23 24 23 23 23 23 24 24 24 24 24 25 27 28 28 27 28 28 28 28 28 28 29 29 29 30 30 30 31 31 31 31 31 31 31 32 33 34 34 35 35
20 20 21 21 21 21 22 22 22 23 23 23 23 24 25 26 26 27 27 27 28 28 29 29 30 30 30 30 31 31 31 32 32 32 31 31 32 32 32 33 33 34 34 35
20 21 21 21 21 21 21 21 22 22 23 24 24 24 25 26 26 26 27 27 28 29 30 30 31 31 31 32 32 32 32 32 32 32 31 32 32 32 33 33 34 34 34 35
19 20 20 20 20 20 20 20 20 21 21 22 22 23 24 25 25 26 26 26 27 28 29 30 30 30 31 31 32 32 32 32 32 32 32 32 32 32 32 32 32 33 33 33
17 17 18 18 19 19 19 20 20 20 20 21 21 22 23 24 24 25 25 26 27 27 28 28 29 30 30 31 31 31 31 31 31 31 31 31 31 31 31 32 32 32 32 33
18 18 18 18 18 19 19 20 20 21 21 21 21 22 22 23 24 25 26 26 27 27 28 28 29 29 30 31 31 30 30 30 31 31 31 31 31 32 32 32 32 32 32 32
18 18 18 18 18 19 19 19 20 20 20 21 22 22 23 23 24 24 25 26 27 27 28 28 29 29 30 30 30 30 30 30 30 31 31 31 31 32 32 32 32 32 31 31
18 18 18 18 18 18 18 18 18 19 19 20 21 22 22 23 24 25 25 26 27 28 28 29 29 30 30 31 31 31 31 31 31 31 31 32 32 32 32 32 32 32 32 31
17 17 17 17 17 17 18 18 18 18 19 20 21 22 22 23 24 25 26 26 27 27 28 28 29 30 30 30 30 31 31 31 31 31 32 32 32 32 32 32 32 31 31 31
17 17 17 17 17 17 17 18 18 18 19 20 21 21 22 23 24 24 25 25 26 26 26 27 28 28 29 29 30 30 30 30 30 31 31 31 31 31 31 31 31 30 30 29
15 16 16 17 17 18 18 18 18 18 19 19 20 20 22 22 23 24 24 24 24 25 25 26 26 26 27 28 28 29 29 30 30 31 31 31 31 30 30 29 29 28 28 27
Wind_Direction
267 266 265 263 262 262 262 263 264 263 263 264 265 265 266 267 267 269 268 267 267 266 266 267 267 268 269 269 269 269 269 269 269 269 269 266 265 264 263 261 259 258 256 255
267 266 265 263 261 261 262 263 263 262 262 263 264 263 265 266 266 266 265 266 266 265 266 267 267 266 267 268 269 269 270 270 270 271 269 268 266 266 263 261 259 259 258 257
270 267 266 264 263 263 261 261 261 261 262 262 262 262 262 263 264 264 264 264 265 265 266 267 267 267 267 269 269 269 269 270 271 271 270 268 266 264 262 260 259 259 259 258
274 271 269 268 266 266 264 261 260 260 260 260 261 260 260 261 262 263 263 264 265 265 266 268 268 268 268 269 270 270 269 268 269 270 270 268 265 262 261 259 259 260 260 259
274 274 273 270 269 267 266 263 260 259 258 259 259 258 258 259 260 261 262 262 263 264 265 267 268 268 269 269 270 271 270 269 269 268 269 266 263 261 261 260 260 260 260 259
272 273 275 275 271 269 267 264 261 260 259 258 258 256 255 256 257 259 261 261 262 263 264 265 267 268 268 268 270 271 272 272 270 270 269 265 262 261 262 262 261 261 260 260
271 271 272 273 273 270 268 266 262 260 259 258 257 257 256 256 257 258 259 259 261 263 264 265 266 267 267 268 269 271 273 273 272 270 268 264 263 263 263 263 263 262 261 260
272 272 272 272 270 268 267 264 263 261 259 257 257 256 255 255 256 256 256 257 259 261 263 265 265 266 266 267 268 269 271 272 271 270 266 263 263 264 264 263 263 264 262 262
271 273 274 273 271 267 265 263 261 260 259 258 257 257 256 256 256 255 256 256 257 259 260 262 264 263 264 266 266 268 270 269 269 268 267 264 263 263 263 264 265 265 263 264
269 271 271 271 270 267 264 263 262 261 259 257 257 256 255 256 256 256 257 257 257 258 259 261 262 262 263 263 264 266 267 267 266 266 265 263 262 263 264 265 265 265 265 266
269 268 268 270 271 269 266 264 264 262 259 258 257 256 255 256 257 257 257 257 258 258 259 260 260 261 262 262 263 265 265 264 264 264 263 263 263 263 264 265 265 265 265 265
271 270 269 270 270 269 267 265 263 262 260 258 257 255 255 257 258 258 256 258 258 258 258 258 260 261 262 262 263 264 264 265 264 263 263 263 263 264 265 267 267 267 266 266
273 273 271 269 268 268 266 265 264 263 260 257 256 255 254 254 254 254 255 256 259 259 257 257 258 260 260 260 261 262 263 264 265 264 264 264 264 265 266 267 267 268 268 268
272 272 271 270 269 267 265 264 262 260 258 258 257 256 253 253 253 253 254 256 259 260 259 258 258 259 259 260 261 261 262 263 265 266 266 265 265 266 267 267 268 268 268 268
274 274 273 271 269 268 265 263 260 258 256 258 259 257 254 254 254 255 256 257 258 259 259 258 259 259 259 260 260 261 263 264 266 267 267 267 266 266 267 267 268 268 269 270
275 275 274 272 272 270 267 263 259 257 258 258 259 257 256 255 255 256 257 258 258 258 258 258 258 260 260 259 259 260 262 264 265 267 268 268 268 267 267 267 269 270 270 271
276 276 275 273 272 269 266 263 261 259 257 257 257 258 258 256 256 256 258 259 258 258 258 257 257 259 259 258 259 260 263 264 265 266 267 268 269 268 269 269 270 272 272 272
278 278 278 274 271 269 268 266 265 263 260 259 258 258 258 258 258 260 260 259 259 259 259 259 260 260 260 260 261 262 264 266 266 267 267 268 269 270 271 272 272 273 273 273
279 279 279 276 274 272 270 269 267 263 260 258 258 257 257 258 259 260 261 262 262 262 262 263 263 263 262 263 264 265 265 266 266 267 268 269 271 272 273 273 274 274 274 274
282 282 282 279 276 274 271 270 268 264 261 259 257 256 256 257 259 261 262 263 263 264 264 264 264 263 264 265 265 265 264 265 266 267 268 269 271 273 273 274 275 275 276 275
284 285 284 282 280 277 275 272 268 264 261 260 259 258 258 259 261 263 264 264 265 265 264 263 263 264 264 265 265 264 264 265 266 267 268 269 271 273 274 275 276 276 276 276
285 284 284 283 282 281 278 275 270 266 262 262 262 261 260 261 262 263 264 265 265 265 264 264 265 265 265 264 264 264 264 265 267 268 269 270 271 272 274 276 277 277 277 276
285 285 284 284 283 282 281 278 273 269 266 264 263 262 261 263 263 264 265 266 265 265 265 264 265 265 264 264 264 264 265 267 269 269 270 271 273 273 275 276 277 277 277 277
285 284 283 282 284 285 284 282 277 273 270 267 267 266 265 265 266 267 267 267 267 266 266 266 266 265 265 265 264 264 266 267 269 270 271 273 274 275 276 277 277 277 277 277
287 286 286 285 285 286 285 283 280 276 273 272 270 269 268 268 269 269 269 269 269 269 268 268 267 267 267 266 266 266 267 268 270 271 272 273 275 275 276 276 276 277 277 277
290 289 290 289 288 287 285 283 281 279 276 275 274 273 272 272 271 271 271 271 271 272 271 271 270 270 269 268 268 268 269 269 270 272 273 273 274 275 275 275 275 275 276 276
291 291 291 291 290 290 288 284 282 280 279 278 277 277 277 276 275 274 274 273 274 274 274 273 272 272 271 271 270 270 269 270 271 273 273 273 274 274 274 273 273 273 274 275